カタログに戻る

FENGYUN 1C DEB

運用中SSO
NORAD 37437·DEBRIS·🇨🇳 China

打ち上げ May 10, 1999 から Taiyuan Satellite Launch Center

Loading…

次のパス (今後24時間)

TLE

経年Source: Space-Track

元期: Sep 8, 2026, 04:57 UTC

1 37437U 99025EHF 26251.20654144  .00000696  00000-0  33063-3 0  9990
2 37437  98.6053 240.0953 0111596 351.2378  69.1542 14.19381610678138

AllMySatでFENGYUN 1C DEBをリアルタイム追跡

Download on the App Store